Time,TemperatureF,DewpointF,PressureIn,WindDirection,WindDirectionDegrees,WindSpeedMPH,WindSpeedGustMPH,Humidity,HourlyPrecipIn,Conditions,Clouds,dailyrainin,SoftwareType,DateUTC
2013-06-05 00:02:00,61.9,57.6,29.94,SE,135,0.0,0.0,86,0.00,CLR,CLR,0.00,WeatherDisplay:10.37,2013-06-05 04:02:00,
2013-06-05 00:03:00,61.9,58.0,29.94,SE,135,0.0,0.0,87,0.00,CLR,CLR,0.00,WeatherDisplay:10.37,2013-06-05 04:03:00,
2013-06-05 00:08:00,61.9,58.0,29.94,SE,135,0.0,0.0,87,0.00,CLR,CLR,0.00,WeatherDisplay:10.37,2013-06-05 04:08:00,
2013-06-05 00:13:00,61.9,58.0,29.94,SE,135,0.0,0.0,87,0.00,CLR,CLR,0.00,WeatherDisplay:10.37,2013-06-05 04:13:00,
2013-06-05 00:18:00,61.7,57.8,29.94,SE,135,0.0,0.0,87,0.00,CLR,CLR,0.00,WeatherDisplay:10.37,2013-06-05 04:18:00,
2013-06-05 00:23:00,61.5,57.6,29.94,SE,135,0.0,0.0,87,0.00,CLR,CLR,0.00,WeatherDisplay:10.37,2013-06-05 04:23:00,
2013-06-05 00:28:00,61.3,57.4,29.94,SE,135,0.0,0.0,87,0.00,CLR,CLR,0.00,WeatherDisplay:10.37,2013-06-05 04:28:00,
2013-06-05 00:33:00,61.3,57.8,29.94,SE,135,0.0,0.0,88,0.00,CLR,CLR,0.00,WeatherDisplay:10.37,2013-06-05 04:33:00,
2013-06-05 00:38:00,61.3,57.8,29.94,SE,135,0.0,0.0,88,0.00,CLR,CLR,0.00,WeatherDisplay:10.37,2013-06-05 04:38:00,
2013-06-05 00:43:00,61.3,57.8,29.93,SE,135,0.0,0.0,88,0.00,CLR,CLR,0.00,WeatherDisplay:10.37,2013-06-05 04:43:00,
2013-06-05 00:49:00,61.3,57.8,29.94,SE,135,0.0,0.0,88,0.00,CLR,CLR,0.00,WeatherDisplay:10.37,2013-06-05 04:49:00,
2013-06-05 00:54:00,61.3,57.8,29.94,SE,135,0.0,0.0,88,0.00,CLR,CLR,0.00,WeatherDisplay:10.37,2013-06-05 04:54:00,
2013-06-05 00:59:00,61.3,57.8,29.94,SE,135,0.0,0.0,88,0.00,CLR,CLR,0.00,WeatherDisplay:10.37,2013-06-05 04:59:00,
2013-06-05 01:04:00,61.3,57.8,29.94,SE,135,0.0,0.0,88,0.00,CLR,CLR,0.00,WeatherDisplay:10.37,2013-06-05 05:04:00,
2013-06-05 01:09:00,61.3,57.8,29.94,SE,135,0.0,0.0,88,0.00,CLR,CLR,0.00,WeatherDisplay:10.37,2013-06-05 05:09:00,
2013-06-05 01:14:00,61.3,57.8,29.93,SE,135,0.0,0.0,88,0.00,CLR,CLR,0.00,WeatherDisplay:10.37,2013-06-05 05:14:00,
2013-06-05 01:19:00,61.3,57.8,29.93,SE,135,0.0,0.0,88,0.00,CLR,CLR,0.00,WeatherDisplay:10.37,2013-06-05 05:19:00,
2013-06-05 01:24:00,61.2,57.6,29.94,SE,135,0.0,0.0,88,0.00,CLR,CLR,0.00,WeatherDisplay:10.37,2013-06-05 05:24:00,
2013-06-05 01:29:00,61.0,57.4,29.94,SE,135,0.0,0.0,88,0.00,CLR,CLR,0.00,WeatherDisplay:10.37,2013-06-05 05:29:00,
2013-06-05 01:34:00,60.6,57.0,29.94,SE,135,0.0,0.0,88,0.00,CLR,CLR,0.00,WeatherDisplay:10.37,2013-06-05 05:34:00,
2013-06-05 01:39:00,60.6,57.0,29.94,SE,135,0.0,0.0,88,0.00,CLR,CLR,0.00,WeatherDisplay:10.37,2013-06-05 05:39:00,
2013-06-05 01:44:00,61.0,57.4,29.94,SE,135,0.0,0.0,88,0.00,CLR,CLR,0.00,WeatherDisplay:10.37,2013-06-05 05:44:00,
2013-06-05 01:49:00,61.0,57.4,29.94,SE,135,0.0,0.0,88,0.00,CLR,CLR,0.00,WeatherDisplay:10.37,2013-06-05 05:49:00,
2013-06-05 01:54:00,61.0,57.4,29.94,SE,135,0.0,0.0,88,0.00,CLR,CLR,0.00,WeatherDisplay:10.37,2013-06-05 05:54:00,
2013-06-05 01:59:00,60.6,57.0,29.93,ENE,68,0.0,0.0,88,0.00,CLR,CLR,0.00,WeatherDisplay:10.37,2013-06-05 05:59:00,
2013-06-05 02:04:00,60.4,56.9,29.93,ENE,68,0.0,0.0,88,0.00,CLR,CLR,0.00,WeatherDisplay:10.37,2013-06-05 06:04:00,
2013-06-05 02:09:00,60.4,56.9,29.93,ENE,68,0.0,0.0,88,0.00,CLR,CLR,0.00,WeatherDisplay:10.37,2013-06-05 06:09:00,
2013-06-05 02:15:00,60.1,56.8,29.93,ENE,68,0.0,0.0,89,0.00,CLR,CLR,0.00,WeatherDisplay:10.37,2013-06-05 06:15:00,
2013-06-05 02:20:00,60.1,56.8,29.93,ENE,68,0.0,0.0,89,0.00,CLR,CLR,0.00,WeatherDisplay:10.37,2013-06-05 06:20:00,
2013-06-05 02:25:00,60.1,56.8,29.93,ENE,68,0.0,0.0,89,0.00,CLR,CLR,0.00,WeatherDisplay:10.37,2013-06-05 06:25:00,
2013-06-05 02:30:00,60.1,56.8,29.93,ENE,68,0.0,0.0,89,0.00,CLR,CLR,0.00,WeatherDisplay:10.37,2013-06-05 06:30:00,
2013-06-05 02:35:00,60.1,56.8,29.93,ENE,68,0.0,0.0,89,0.00,CLR,CLR,0.00,WeatherDisplay:10.37,2013-06-05 06:35:00,
2013-06-05 02:40:00,59.7,56.5,29.92,ENE,68,0.0,0.0,89,0.00,CLR,CLR,0.00,WeatherDisplay:10.37,2013-06-05 06:40:00,
2013-06-05 02:45:00,59.7,56.5,29.92,ENE,68,0.0,0.0,89,0.00,CLR,CLR,0.00,WeatherDisplay:10.37,2013-06-05 06:45:00,
2013-06-05 02:50:00,59.7,56.5,29.92,ENE,68,0.0,0.0,89,0.00,CLR,CLR,0.00,WeatherDisplay:10.37,2013-06-05 06:50:00,
2013-06-05 02:56:00,59.7,56.5,29.92,ENE,68,0.0,0.0,89,0.00,CLR,CLR,0.00,WeatherDisplay:10.37,2013-06-05 06:56:00,
2013-06-05 03:01:00,59.4,56.1,29.92,ENE,68,0.0,0.0,89,0.00,CLR,CLR,0.00,WeatherDisplay:10.37,2013-06-05 07:01:00,
2013-06-05 03:06:00,59.5,56.3,29.92,ENE,68,0.0,0.0,89,0.00,CLR,CLR,0.00,WeatherDisplay:10.37,2013-06-05 07:06:00,
2013-06-05 03:11:00,59.5,56.3,29.92,ENE,68,0.0,0.0,89,0.00,CLR,CLR,0.00,WeatherDisplay:10.37,2013-06-05 07:11:00,
2013-06-05 03:16:00,59.7,56.5,29.92,ENE,68,0.0,0.0,89,0.00,CLR,CLR,0.00,WeatherDisplay:10.37,2013-06-05 07:16:00,
2013-06-05 03:21:00,59.9,56.6,29.92,ENE,68,0.0,0.0,89,0.00,CLR,CLR,0.00,WeatherDisplay:10.37,2013-06-05 07:21:00,
2013-06-05 03:27:00,60.1,56.8,29.92,ENE,68,0.0,0.0,89,0.00,CLR,CLR,0.00,WeatherDisplay:10.37,2013-06-05 07:27:00,
2013-06-05 03:32:00,59.9,56.6,29.92,ENE,68,0.0,0.0,89,0.00,CLR,CLR,0.00,WeatherDisplay:10.37,2013-06-05 07:32:00,
2013-06-05 03:37:00,59.9,57.0,29.92,ENE,68,0.0,0.0,90,0.00,CLR,CLR,0.00,WeatherDisplay:10.37,2013-06-05 07:37:00,
2013-06-05 03:42:00,60.1,57.1,29.92,ENE,68,0.0,0.0,90,0.00,CLR,CLR,0.00,WeatherDisplay:10.37,2013-06-05 07:42:00,
2013-06-05 03:47:00,60.4,57.2,29.92,ENE,68,0.0,0.0,89,0.00,CLR,CLR,0.00,WeatherDisplay:10.37,2013-06-05 07:47:00,
2013-06-05 03:52:00,60.4,57.2,29.92,ENE,68,0.0,0.0,89,0.00,CLR,CLR,0.00,WeatherDisplay:10.37,2013-06-05 07:52:00,
2013-06-05 03:57:00,60.4,57.2,29.92,ENE,68,0.0,0.0,89,0.00,CLR,CLR,0.00,WeatherDisplay:10.37,2013-06-05 07:57:00,
2013-06-05 04:02:00,60.4,57.2,29.92,ENE,68,0.0,0.0,89,0.00,CLR,CLR,0.00,WeatherDisplay:10.37,2013-06-05 08:02:00,
2013-06-05 04:07:00,60.4,57.2,29.92,ENE,68,0.0,0.0,89,0.00,CLR,CLR,0.00,WeatherDisplay:10.37,2013-06-05 08:07:00,
2013-06-05 04:12:00,60.4,57.2,29.92,ENE,68,0.0,0.0,89,0.00,CLR,CLR,0.00,WeatherDisplay:10.37,2013-06-05 08:12:00,
2013-06-05 04:17:00,60.4,57.2,29.92,ENE,68,0.0,0.0,89,0.00,CLR,CLR,0.00,WeatherDisplay:10.37,2013-06-05 08:17:00,
2013-06-05 04:22:00,60.4,57.2,29.91,ENE,68,0.0,0.0,89,0.00,CLR,CLR,0.00,WeatherDisplay:10.37,2013-06-05 08:22:00,
2013-06-05 04:28:00,60.4,57.2,29.92,ENE,68,0.0,0.0,89,0.00,CLR,CLR,0.00,WeatherDisplay:10.37,2013-06-05 08:28:00,
2013-06-05 04:33:00,60.4,57.2,29.92,ENE,68,0.0,0.0,89,0.00,CLR,CLR,0.00,WeatherDisplay:10.37,2013-06-05 08:33:00,
2013-06-05 04:38:00,60.4,57.2,29.92,ENE,68,0.0,0.0,89,0.00,CLR,CLR,0.00,WeatherDisplay:10.37,2013-06-05 08:38:00,
2013-06-05 04:43:00,60.4,57.2,29.92,ENE,68,0.0,0.0,89,0.00,CLR,CLR,0.00,WeatherDisplay:10.37,2013-06-05 08:43:00,
2013-06-05 04:48:00,60.4,57.2,29.92,ENE,68,0.0,0.0,89,0.00,CLR,CLR,0.00,WeatherDisplay:10.37,2013-06-05 08:48:00,
2013-06-05 04:53:00,60.4,57.2,29.92,ENE,68,0.0,0.0,89,0.00,CLR,CLR,0.00,WeatherDisplay:10.37,2013-06-05 08:53:00,
2013-06-05 04:58:00,60.3,57.0,29.92,ENE,68,0.0,0.0,89,0.00,CLR,CLR,0.00,WeatherDisplay:10.37,2013-06-05 08:58:00,
2013-06-05 05:03:00,60.4,57.2,29.92,ENE,68,0.0,0.0,89,0.00,CLR,CLR,0.00,WeatherDisplay:10.37,2013-06-05 09:03:00,
2013-06-05 05:08:00,60.4,57.2,29.92,ENE,68,0.0,0.0,89,0.00,CLR,CLR,0.00,WeatherDisplay:10.37,2013-06-05 09:08:00,
2013-06-05 05:13:00,60.6,57.4,29.92,ENE,68,0.0,0.0,89,0.00,CLR,CLR,0.00,WeatherDisplay:10.37,2013-06-05 09:13:00,
2013-06-05 05:19:00,60.8,57.5,29.92,ENE,68,0.0,0.0,89,0.00,CLR,CLR,0.00,WeatherDisplay:10.37,2013-06-05 09:19:00,
2013-06-05 05:24:00,60.6,57.4,29.92,ENE,68,0.0,0.0,89,0.00,CLR,CLR,0.00,WeatherDisplay:10.37,2013-06-05 09:24:00,
2013-06-05 05:29:00,60.6,57.4,29.92,ENE,68,0.0,0.0,89,0.00,CLR,CLR,0.00,WeatherDisplay:10.37,2013-06-05 09:29:00,
2013-06-05 05:34:00,60.6,57.4,29.92,ENE,68,0.0,0.0,89,0.00,CLR,CLR,0.00,WeatherDisplay:10.37,2013-06-05 09:34:00,
2013-06-05 05:39:00,60.6,57.4,29.93,ENE,68,0.0,0.0,89,0.00,CLR,CLR,0.00,WeatherDisplay:10.37,2013-06-05 09:39:00,
2013-06-05 05:44:00,61.0,57.7,29.93,ENE,68,0.0,0.0,89,0.00,CLR,CLR,0.00,WeatherDisplay:10.37,2013-06-05 09:44:00,
2013-06-05 05:49:00,61.3,58.4,29.93,ENE,68,0.0,0.0,90,0.00,CLR,CLR,0.00,WeatherDisplay:10.37,2013-06-05 09:49:00,
2013-06-05 05:54:00,61.5,58.6,29.94,ENE,68,0.0,0.0,90,0.00,CLR,CLR,0.00,WeatherDisplay:10.37,2013-06-05 09:54:00,
2013-06-05 05:59:00,61.3,58.4,29.93,South,180,0.0,0.0,90,0.00,CLR,CLR,0.00,WeatherDisplay:10.37,2013-06-05 09:59:00,
2013-06-05 06:04:00,61.3,58.4,29.93,SE,135,0.0,0.0,90,0.00,CLR,CLR,0.00,WeatherDisplay:10.37,2013-06-05 10:04:00,
2013-06-05 06:09:00,61.2,58.2,29.93,SSE,158,0.0,0.0,90,0.00,CLR,CLR,0.00,WeatherDisplay:10.37,2013-06-05 10:09:00,
2013-06-05 06:14:00,61.2,58.2,29.93,SSE,158,0.0,0.0,90,0.00,CLR,CLR,0.00,WeatherDisplay:10.37,2013-06-05 10:14:00,
2013-06-05 06:20:00,61.3,58.4,29.94,ENE,68,0.0,0.0,90,0.00,CLR,CLR,0.00,WeatherDisplay:10.37,2013-06-05 10:20:00,
2013-06-05 06:25:00,61.5,58.6,29.94,NE,45,0.0,0.0,90,0.00,CLR,CLR,0.00,WeatherDisplay:10.37,2013-06-05 10:25:00,
2013-06-05 06:30:00,61.7,58.7,29.93,NE,45,0.0,0.0,90,0.00,CLR,CLR,0.00,WeatherDisplay:10.37,2013-06-05 10:30:00,
2013-06-05 06:35:00,62.2,59.0,29.94,NE,45,0.0,0.0,89,0.00,CLR,CLR,0.00,WeatherDisplay:10.37,2013-06-05 10:35:00,
2013-06-05 06:40:00,62.2,59.0,29.94,SE,135,0.0,0.0,89,0.00,CLR,CLR,0.00,WeatherDisplay:10.37,2013-06-05 10:40:00,
2013-06-05 06:45:00,62.4,59.1,29.95,SSE,158,0.0,0.0,89,0.00,CLR,CLR,0.00,WeatherDisplay:10.37,2013-06-05 10:45:00,
2013-06-05 06:50:00,62.6,59.3,29.95,SE,135,0.0,0.0,89,0.00,CLR,CLR,0.00,WeatherDisplay:10.37,2013-06-05 10:50:00,
2013-06-05 06:56:00,62.4,59.1,29.94,SE,135,0.0,0.0,89,0.00,CLR,CLR,0.00,WeatherDisplay:10.37,2013-06-05 10:56:00,
2013-06-05 07:01:00,62.2,59.0,29.95,SE,135,0.0,0.0,89,0.00,CLR,CLR,0.00,WeatherDisplay:10.37,2013-06-05 11:01:00,
2013-06-05 07:06:00,62.2,59.0,29.95,SE,135,0.0,0.0,89,0.00,CLR,CLR,0.00,WeatherDisplay:10.37,2013-06-05 11:06:00,
2013-06-05 07:11:00,62.4,59.1,29.95,SE,135,0.0,0.0,89,0.00,CLR,CLR,0.00,WeatherDisplay:10.37,2013-06-05 11:11:00,
2013-06-05 07:16:00,62.8,59.5,29.95,SE,135,0.0,0.0,89,0.00,CLR,CLR,0.00,WeatherDisplay:10.37,2013-06-05 11:16:00,
2013-06-05 07:21:00,62.8,59.5,29.95,SE,135,0.0,0.0,89,0.00,CLR,CLR,0.00,WeatherDisplay:10.37,2013-06-05 11:21:00,
2013-06-05 07:27:00,63.1,59.8,29.95,SE,135,0.0,0.0,89,0.00,CLR,CLR,0.00,WeatherDisplay:10.37,2013-06-05 11:27:00,
2013-06-05 07:32:00,63.1,59.8,29.95,SE,135,0.0,0.0,89,0.00,CLR,CLR,0.00,WeatherDisplay:10.37,2013-06-05 11:32:00,
2013-06-05 07:37:00,63.3,60.0,29.95,SE,135,0.0,0.0,89,0.00,CLR,CLR,0.00,WeatherDisplay:10.37,2013-06-05 11:37:00,
2013-06-05 07:42:00,63.3,60.0,29.95,SE,135,0.0,0.0,89,0.00,CLR,CLR,0.00,WeatherDisplay:10.37,2013-06-05 11:42:00,
2013-06-05 07:47:00,63.5,60.2,29.95,SE,135,0.0,0.0,89,0.00,CLR,CLR,0.00,WeatherDisplay:10.37,2013-06-05 11:47:00,
2013-06-05 07:52:00,63.7,60.4,29.95,SE,135,0.0,0.0,89,0.00,CLR,CLR,0.00,WeatherDisplay:10.37,2013-06-05 11:52:00,
2013-06-05 07:57:00,64.0,60.7,29.95,ESE,112,0.0,0.0,89,0.00,CLR,CLR,0.00,WeatherDisplay:10.37,2013-06-05 11:57:00,
2013-06-05 08:02:00,64.0,60.4,29.96,ESE,112,0.0,0.0,88,0.00,CLR,CLR,0.00,WeatherDisplay:10.37,2013-06-05 12:02:00,
2013-06-05 08:07:00,64.2,60.6,29.95,ESE,112,0.0,0.0,88,0.00,CLR,CLR,0.00,WeatherDisplay:10.37,2013-06-05 12:07:00,
2013-06-05 08:12:00,64.0,60.4,29.95,NE,45,0.0,0.0,88,0.00,CLR,CLR,0.00,WeatherDisplay:10.37,2013-06-05 12:12:00,
2013-06-05 08:17:00,64.2,60.6,29.96,NE,45,0.0,0.0,88,0.00,CLR,CLR,0.00,WeatherDisplay:10.37,2013-06-05 12:17:00,
2013-06-05 08:22:00,64.2,60.6,29.95,NE,45,0.0,0.0,88,0.00,CLR,CLR,0.00,WeatherDisplay:10.37,2013-06-05 12:22:00,
2013-06-05 08:28:00,64.4,60.8,29.96,NE,45,0.0,0.0,88,0.00,CLR,CLR,0.00,WeatherDisplay:10.37,2013-06-05 12:28:00,
2013-06-05 08:33:00,64.4,60.8,29.96,NE,45,0.0,0.0,88,0.00,CLR,CLR,0.00,WeatherDisplay:10.37,2013-06-05 12:33:00,
2013-06-05 08:38:00,64.6,60.9,29.96,NE,45,0.0,0.0,88,0.00,CLR,CLR,0.00,WeatherDisplay:10.37,2013-06-05 12:38:00,
2013-06-05 08:43:00,64.8,61.1,29.95,NE,45,0.0,0.0,88,0.00,CLR,CLR,0.00,WeatherDisplay:10.37,2013-06-05 12:43:00,
2013-06-05 08:48:00,64.8,61.1,29.96,NE,45,0.0,0.0,88,0.00,CLR,CLR,0.00,WeatherDisplay:10.37,2013-06-05 12:48:00,
2013-06-05 08:53:00,64.9,61.3,29.96,NE,45,0.0,0.0,88,0.00,CLR,CLR,0.00,WeatherDisplay:10.37,2013-06-05 12:53:00,
2013-06-05 08:58:00,64.9,61.3,29.95,NE,45,0.0,0.0,88,0.00,CLR,CLR,0.00,WeatherDisplay:10.37,2013-06-05 12:58:00,
2013-06-05 09:03:00,65.1,61.5,29.96,NE,45,0.0,0.0,88,0.00,CLR,CLR,0.00,WeatherDisplay:10.37,2013-06-05 13:03:00,
2013-06-05 09:08:00,65.5,61.5,29.95,NE,45,0.0,0.0,87,0.00,CLR,CLR,0.00,WeatherDisplay:10.37,2013-06-05 13:08:00,
2013-06-05 09:13:00,65.5,61.5,29.96,NE,45,0.0,0.0,87,0.00,CLR,CLR,0.00,WeatherDisplay:10.37,2013-06-05 13:13:00,
2013-06-05 09:18:00,65.5,61.5,29.96,ENE,68,0.0,0.0,87,0.00,CLR,CLR,0.00,WeatherDisplay:10.37,2013-06-05 13:18:00,
2013-06-05 09:23:00,65.5,61.5,29.96,ENE,68,0.0,0.0,87,0.00,CLR,CLR,0.00,WeatherDisplay:10.37,2013-06-05 13:23:00,
2013-06-05 09:29:00,65.8,61.9,29.96,ENE,68,0.0,0.0,87,0.00,CLR,CLR,0.00,WeatherDisplay:10.37,2013-06-05 13:29:00,
2013-06-05 09:34:00,65.8,61.9,29.96,NE,45,0.0,0.0,87,0.00,CLR,CLR,0.00,WeatherDisplay:10.37,2013-06-05 13:34:00,
2013-06-05 09:39:00,66.0,62.0,29.96,ENE,68,0.0,0.0,87,0.00,CLR,CLR,0.00,WeatherDisplay:10.37,2013-06-05 13:39:00,
2013-06-05 09:44:00,66.4,62.4,29.96,ENE,68,0.0,0.0,87,0.00,CLR,CLR,0.00,WeatherDisplay:10.37,2013-06-05 13:44:00,
2013-06-05 09:49:00,66.4,62.4,29.96,ENE,68,0.0,0.0,87,0.00,CLR,CLR,0.00,WeatherDisplay:10.37,2013-06-05 13:49:00,
2013-06-05 09:54:00,66.0,62.0,29.96,SSE,158,0.0,0.0,87,0.00,CLR,CLR,0.00,WeatherDisplay:10.37,2013-06-05 13:54:00,
2013-06-05 09:59:00,66.0,62.0,29.96,ESE,112,0.0,0.0,87,0.00,CLR,CLR,0.00,WeatherDisplay:10.37,2013-06-05 13:59:00,
2013-06-05 10:04:00,66.0,62.0,29.96,ESE,112,0.0,0.0,87,0.00,CLR,CLR,0.00,WeatherDisplay:10.37,2013-06-05 14:04:00,
2013-06-05 10:09:00,65.8,61.9,29.96,SE,135,0.0,0.0,87,0.00,CLR,CLR,0.00,WeatherDisplay:10.37,2013-06-05 14:09:00,
2013-06-05 10:14:00,65.8,61.9,29.96,ESE,112,0.0,0.0,87,0.00,CLR,CLR,0.00,WeatherDisplay:10.37,2013-06-05 14:14:00,
2013-06-05 10:20:00,65.5,61.5,29.96,ENE,68,0.0,0.0,87,0.00,CLR,CLR,0.00,WeatherDisplay:10.37,2013-06-05 14:20:00,
2013-06-05 10:25:00,65.3,61.7,29.96,SSE,158,0.0,0.0,88,0.00,CLR,CLR,0.00,WeatherDisplay:10.37,2013-06-05 14:25:00,
2013-06-05 10:30:00,65.1,61.5,29.96,SSE,158,0.0,0.0,88,0.03,RA,RA,0.03,WeatherDisplay:10.37,2013-06-05 14:30:00,
2013-06-05 10:35:00,64.9,61.3,29.96,SSE,158,0.0,0.0,88,0.06,RA,RA,0.06,WeatherDisplay:10.37,2013-06-05 14:35:00,
2013-06-05 10:40:00,64.8,61.4,29.96,ENE,68,0.0,0.0,89,0.09,RA,RA,0.09,WeatherDisplay:10.37,2013-06-05 14:40:00,
2013-06-05 10:45:00,64.4,61.1,29.97,ENE,68,0.0,0.0,89,0.09,RA,RA,0.09,WeatherDisplay:10.37,2013-06-05 14:45:00,
2013-06-05 10:50:00,64.4,61.4,29.97,ENE,68,0.0,0.0,90,0.09,,,0.09,WeatherDisplay:10.37,2013-06-05 14:50:00,
2013-06-05 10:55:00,64.2,60.9,29.96,ENE,68,0.0,0.0,89,0.09,CLR,CLR,0.09,WeatherDisplay:10.37,2013-06-05 14:55:00,
2013-06-05 11:01:00,64.6,61.6,29.96,ENE,68,0.0,0.0,90,0.12,RA,RA,0.12,WeatherDisplay:10.37,2013-06-05 15:01:00,
2013-06-05 11:06:00,64.8,61.8,29.96,ENE,68,0.0,0.0,90,0.12,RA,RA,0.12,WeatherDisplay:10.37,2013-06-05 15:06:00,
2013-06-05 11:11:00,64.6,61.6,29.96,ENE,68,0.0,0.0,90,0.15,RA,RA,0.15,WeatherDisplay:10.37,2013-06-05 15:11:00,
2013-06-05 11:16:00,64.6,61.6,29.96,ENE,68,0.0,0.0,90,0.15,RA,RA,0.15,WeatherDisplay:10.37,2013-06-05 15:16:00,
2013-06-05 11:22:00,64.2,61.2,29.95,ENE,68,0.0,0.0,90,0.15,,,0.15,WeatherDisplay:10.37,2013-06-05 15:22:00,
2013-06-05 11:27:00,64.2,61.2,29.96,ENE,68,0.0,0.0,90,0.15,CLR,CLR,0.15,WeatherDisplay:10.37,2013-06-05 15:27:00,
2013-06-05 11:32:00,64.2,61.2,29.95,ENE,68,0.0,0.0,90,0.12,CLR,CLR,0.15,WeatherDisplay:10.37,2013-06-05 15:32:00,
2013-06-05 11:37:00,64.6,61.6,29.95,ESE,112,0.0,0.0,90,0.09,CLR,CLR,0.15,WeatherDisplay:10.37,2013-06-05 15:37:00,
2013-06-05 11:42:00,64.6,61.6,29.95,East,90,0.0,0.0,90,0.06,CLR,CLR,0.15,WeatherDisplay:10.37,2013-06-05 15:42:00,
2013-06-05 11:47:00,64.9,61.9,29.95,South,180,0.0,0.0,90,0.06,CLR,CLR,0.15,WeatherDisplay:10.37,2013-06-05 15:47:00,
2013-06-05 11:52:00,65.1,62.1,29.95,ENE,68,0.0,0.0,90,0.06,CLR,CLR,0.15,WeatherDisplay:10.37,2013-06-05 15:52:00,
2013-06-05 11:58:00,64.9,61.9,29.95,ENE,68,0.0,0.0,90,0.06,CLR,CLR,0.15,WeatherDisplay:10.37,2013-06-05 15:58:00,
2013-06-05 12:03:00,64.9,61.9,29.95,ESE,112,0.0,0.0,90,0.03,CLR,CLR,0.15,WeatherDisplay:10.37,2013-06-05 16:03:00,
2013-06-05 12:08:00,65.3,62.3,29.95,ESE,112,0.0,0.0,90,0.03,CLR,CLR,0.15,WeatherDisplay:10.37,2013-06-05 16:08:00,
2013-06-05 12:13:00,65.5,62.5,29.95,ESE,112,0.0,0.0,90,0.00,CLR,CLR,0.15,WeatherDisplay:10.37,2013-06-05 16:13:00,
2013-06-05 12:18:00,65.3,62.3,29.95,SSE,158,0.0,0.0,90,0.00,CLR,CLR,0.15,WeatherDisplay:10.37,2013-06-05 16:18:00,
2013-06-05 12:23:00,65.1,62.1,29.94,East,90,0.0,0.0,90,0.00,CLR,CLR,0.15,WeatherDisplay:10.37,2013-06-05 16:23:00,
2013-06-05 12:28:00,65.1,62.1,29.94,SE,135,0.0,0.0,90,0.00,CLR,CLR,0.15,WeatherDisplay:10.37,2013-06-05 16:28:00,
2013-06-05 12:33:00,65.8,62.8,29.95,SE,135,0.0,0.0,90,0.00,CLR,CLR,0.15,WeatherDisplay:10.37,2013-06-05 16:33:00,
2013-06-05 12:38:00,65.8,62.8,29.95,ENE,68,0.0,0.0,90,0.00,CLR,CLR,0.15,WeatherDisplay:10.37,2013-06-05 16:38:00,
2013-06-05 12:43:00,65.5,62.5,29.95,ESE,112,0.0,0.0,90,0.00,CLR,CLR,0.15,WeatherDisplay:10.37,2013-06-05 16:43:00,
2013-06-05 12:48:00,65.3,62.3,29.94,East,90,0.0,0.0,90,0.00,CLR,CLR,0.15,WeatherDisplay:10.37,2013-06-05 16:48:00,
2013-06-05 12:53:00,65.3,62.3,29.94,East,90,0.0,0.0,90,0.00,CLR,CLR,0.15,WeatherDisplay:10.37,2013-06-05 16:53:00,
2013-06-05 12:59:00,65.3,62.3,29.94,East,90,0.0,0.0,90,0.00,CLR,CLR,0.15,WeatherDisplay:10.37,2013-06-05 16:59:00,
2013-06-05 13:04:00,64.9,61.9,29.94,SSE,158,0.0,0.0,90,0.00,CLR,CLR,0.15,WeatherDisplay:10.37,2013-06-05 17:04:00,
2013-06-05 13:09:00,64.9,61.9,29.94,SSE,158,0.0,0.0,90,0.00,CLR,CLR,0.15,WeatherDisplay:10.37,2013-06-05 17:09:00,
2013-06-05 13:14:00,64.9,61.9,29.94,SE,135,0.0,0.0,90,0.00,CLR,CLR,0.15,WeatherDisplay:10.37,2013-06-05 17:14:00,
2013-06-05 13:19:00,64.8,61.8,29.94,SE,135,0.0,0.0,90,0.00,CLR,CLR,0.15,WeatherDisplay:10.37,2013-06-05 17:19:00,
2013-06-05 13:24:00,64.8,61.8,29.94,ESE,112,0.0,0.0,90,0.00,CLR,CLR,0.15,WeatherDisplay:10.37,2013-06-05 17:24:00,
2013-06-05 13:29:00,64.9,61.9,29.94,East,90,0.0,0.0,90,0.00,CLR,CLR,0.15,WeatherDisplay:10.37,2013-06-05 17:29:00,
2013-06-05 13:35:00,64.9,61.9,29.94,East,90,0.0,0.0,90,0.00,CLR,CLR,0.15,WeatherDisplay:10.37,2013-06-05 17:35:00,
2013-06-05 13:40:00,64.8,61.8,29.94,SE,135,0.0,0.0,90,0.00,CLR,CLR,0.15,WeatherDisplay:10.37,2013-06-05 17:40:00,
2013-06-05 13:45:00,64.8,61.8,29.94,South,180,0.0,0.0,90,0.00,CLR,CLR,0.15,WeatherDisplay:10.37,2013-06-05 17:45:00,
2013-06-05 13:50:00,64.6,61.6,29.94,NE,45,0.0,0.0,90,0.00,CLR,CLR,0.15,WeatherDisplay:10.37,2013-06-05 17:50:00,
2013-06-05 13:55:00,64.8,61.8,29.94,NE,45,0.0,0.0,90,0.00,CLR,CLR,0.15,WeatherDisplay:10.37,2013-06-05 17:55:00,
2013-06-05 14:00:00,64.8,61.8,29.94,NE,45,0.0,0.0,90,0.00,CLR,CLR,0.15,WeatherDisplay:10.37,2013-06-05 18:00:00,
2013-06-05 14:05:00,64.6,61.6,29.94,ENE,68,0.0,0.0,90,0.00,CLR,CLR,0.15,WeatherDisplay:10.37,2013-06-05 18:05:00,
2013-06-05 14:10:00,64.6,61.6,29.93,SE,135,0.0,0.0,90,0.00,CLR,CLR,0.15,WeatherDisplay:10.37,2013-06-05 18:10:00,
2013-06-05 14:15:00,64.6,61.6,29.93,SE,135,0.0,0.0,90,0.00,CLR,CLR,0.15,WeatherDisplay:10.37,2013-06-05 18:15:00,
2013-06-05 14:20:00,64.6,61.6,29.94,SE,135,0.0,0.0,90,0.00,CLR,CLR,0.15,WeatherDisplay:10.37,2013-06-05 18:20:00,
2013-06-05 14:26:00,64.6,61.6,29.94,SE,135,0.0,0.0,90,0.00,CLR,CLR,0.15,WeatherDisplay:10.37,2013-06-05 18:26:00,
2013-06-05 14:31:00,64.6,61.6,29.93,ENE,68,0.0,0.0,90,0.00,CLR,CLR,0.15,WeatherDisplay:10.37,2013-06-05 18:31:00,
2013-06-05 14:36:00,64.9,61.9,29.93,ENE,68,0.0,0.0,90,0.00,CLR,CLR,0.15,WeatherDisplay:10.37,2013-06-05 18:36:00,
2013-06-05 14:41:00,65.1,62.1,29.93,ENE,68,0.0,0.0,90,0.00,CLR,CLR,0.15,WeatherDisplay:10.37,2013-06-05 18:41:00,
2013-06-05 14:46:00,65.3,62.3,29.93,ENE,68,0.0,0.0,90,0.00,CLR,CLR,0.15,WeatherDisplay:10.37,2013-06-05 18:46:00,
2013-06-05 14:51:00,65.1,62.1,29.93,ENE,68,0.0,0.0,90,0.00,CLR,CLR,0.15,WeatherDisplay:10.37,2013-06-05 18:51:00,
2013-06-05 14:56:00,64.8,61.8,29.93,SSE,158,0.0,0.0,90,0.00,CLR,CLR,0.15,WeatherDisplay:10.37,2013-06-05 18:56:00,
2013-06-05 15:01:00,64.9,61.9,29.92,SE,135,0.0,0.0,90,0.00,CLR,CLR,0.15,WeatherDisplay:10.37,2013-06-05 19:01:00,
2013-06-05 15:07:00,65.3,62.3,29.92,SE,135,0.0,0.0,90,0.00,CLR,CLR,0.15,WeatherDisplay:10.37,2013-06-05 19:07:00,
2013-06-05 15:12:00,65.8,62.8,29.92,ENE,68,0.0,0.0,90,0.00,CLR,CLR,0.15,WeatherDisplay:10.37,2013-06-05 19:12:00,
2013-06-05 15:17:00,66.4,63.7,29.92,ENE,68,0.0,0.0,91,0.00,CLR,CLR,0.15,WeatherDisplay:10.37,2013-06-05 19:17:00,
2013-06-05 15:22:00,66.7,64.0,29.92,ENE,68,0.0,0.0,91,0.00,CLR,CLR,0.15,WeatherDisplay:10.37,2013-06-05 19:22:00,
2013-06-05 15:27:00,67.1,64.1,29.91,NE,45,0.0,0.0,90,0.00,CLR,CLR,0.15,WeatherDisplay:10.37,2013-06-05 19:27:00,
2013-06-05 15:32:00,67.6,64.6,29.91,ENE,68,0.0,0.0,90,0.00,CLR,CLR,0.15,WeatherDisplay:10.37,2013-06-05 19:32:00,
2013-06-05 15:37:00,67.8,64.5,29.91,ENE,68,0.0,0.0,89,0.00,CLR,CLR,0.15,WeatherDisplay:10.37,2013-06-05 19:37:00,
2013-06-05 15:42:00,67.8,64.5,29.91,NE,45,0.0,0.0,89,0.00,CLR,CLR,0.15,WeatherDisplay:10.37,2013-06-05 19:42:00,
2013-06-05 15:47:00,68.4,65.0,29.91,NE,45,0.0,0.0,89,0.00,CLR,CLR,0.15,WeatherDisplay:10.37,2013-06-05 19:47:00,
2013-06-05 15:52:00,68.2,64.5,29.91,ENE,68,0.0,0.0,88,0.00,CLR,CLR,0.15,WeatherDisplay:10.37,2013-06-05 19:52:00,
2013-06-05 15:57:00,68.5,64.8,29.91,ENE,68,0.0,0.0,88,0.00,CLR,CLR,0.15,WeatherDisplay:10.37,2013-06-05 19:57:00,
2013-06-05 16:02:00,70.0,65.9,29.90,ENE,68,0.0,0.0,87,0.00,CLR,CLR,0.15,WeatherDisplay:10.37,2013-06-05 20:02:00,
2013-06-05 16:07:00,70.7,66.0,29.90,NE,45,0.0,0.0,85,0.00,CLR,CLR,0.15,WeatherDisplay:10.37,2013-06-05 20:07:00,
2013-06-05 16:12:00,70.5,65.4,29.90,ENE,68,0.0,0.0,84,0.00,CLR,CLR,0.15,WeatherDisplay:10.37,2013-06-05 20:12:00,
2013-06-05 16:17:00,70.0,64.9,29.90,ENE,68,0.0,0.0,84,0.00,CLR,CLR,0.15,WeatherDisplay:10.37,2013-06-05 20:17:00,
2013-06-05 16:23:00,70.2,65.1,29.90,NE,45,0.0,0.0,84,0.00,CLR,CLR,0.15,WeatherDisplay:10.37,2013-06-05 20:23:00,
2013-06-05 16:28:00,69.6,64.2,29.89,NE,45,0.0,0.0,83,0.00,CLR,CLR,0.15,WeatherDisplay:10.37,2013-06-05 20:28:00,
2013-06-05 16:33:00,69.1,64.0,29.89,ENE,68,0.0,0.0,84,0.00,CLR,CLR,0.15,WeatherDisplay:10.37,2013-06-05 20:33:00,
2013-06-05 16:38:00,69.1,64.0,29.89,ENE,68,0.0,0.0,84,0.00,CLR,CLR,0.15,WeatherDisplay:10.37,2013-06-05 20:38:00,
2013-06-05 16:43:00,69.4,64.4,29.89,NE,45,0.0,0.0,84,0.00,CLR,CLR,0.15,WeatherDisplay:10.37,2013-06-05 20:43:00,
2013-06-05 16:48:00,69.6,64.6,29.88,NE,45,0.0,0.0,84,0.00,CLR,CLR,0.15,WeatherDisplay:10.37,2013-06-05 20:48:00,
2013-06-05 16:53:00,70.0,64.9,29.88,NE,45,0.0,0.0,84,0.00,CLR,CLR,0.15,WeatherDisplay:10.37,2013-06-05 20:53:00,
2013-06-05 16:58:00,70.2,64.4,29.88,SE,135,0.0,0.0,82,0.00,CLR,CLR,0.15,WeatherDisplay:10.37,2013-06-05 20:58:00,
2013-06-05 17:03:00,70.0,64.2,29.88,SSW,202,0.0,0.0,82,0.00,CLR,CLR,0.15,WeatherDisplay:10.37,2013-06-05 21:03:00,
2013-06-05 17:08:00,69.6,63.9,29.88,ESE,112,0.0,0.0,82,0.00,CLR,CLR,0.15,WeatherDisplay:10.37,2013-06-05 21:08:00,
2013-06-05 17:13:00,69.6,63.9,29.88,SE,135,0.0,0.0,82,0.00,CLR,CLR,0.15,WeatherDisplay:10.37,2013-06-05 21:13:00,
2013-06-05 17:18:00,70.0,64.2,29.87,SE,135,0.0,0.0,82,0.00,CLR,CLR,0.15,WeatherDisplay:10.37,2013-06-05 21:18:00,
2013-06-05 17:23:00,70.0,64.2,29.87,SE,135,0.0,0.0,82,0.00,CLR,CLR,0.15,WeatherDisplay:10.37,2013-06-05 21:23:00,
2013-06-05 17:29:00,70.2,64.4,29.87,SE,135,0.0,0.0,82,0.00,CLR,CLR,0.15,WeatherDisplay:10.37,2013-06-05 21:29:00,
2013-06-05 17:34:00,70.5,65.1,29.88,SE,135,0.0,0.0,83,0.00,CLR,CLR,0.15,WeatherDisplay:10.37,2013-06-05 21:34:00,
2013-06-05 17:39:00,70.3,64.2,29.87,SSE,158,0.0,0.0,81,0.00,CLR,CLR,0.15,WeatherDisplay:10.37,2013-06-05 21:39:00,
2013-06-05 17:44:00,70.0,63.2,29.87,SSE,158,0.0,0.0,79,0.00,CLR,CLR,0.15,WeatherDisplay:10.37,2013-06-05 21:44:00,
2013-06-05 17:49:00,70.0,63.5,29.87,SE,135,0.0,0.0,80,0.00,CLR,CLR,0.15,WeatherDisplay:10.37,2013-06-05 21:49:00,
2013-06-05 17:55:00,70.0,63.5,29.87,SE,135,0.0,0.0,80,0.00,CLR,CLR,0.15,WeatherDisplay:10.37,2013-06-05 21:55:00,
2013-06-05 18:00:00,69.6,63.2,29.87,SSE,158,0.0,0.0,80,0.00,CLR,CLR,0.15,WeatherDisplay:10.37,2013-06-05 22:00:00,
2013-06-05 18:05:00,69.6,63.2,29.86,SSE,158,0.0,0.0,80,0.00,CLR,CLR,0.15,WeatherDisplay:10.37,2013-06-05 22:05:00,
2013-06-05 18:10:00,69.4,63.0,29.86,SE,135,0.0,0.0,80,0.00,CLR,CLR,0.15,WeatherDisplay:10.37,2013-06-05 22:10:00,
2013-06-05 18:15:00,69.4,63.0,29.86,SE,135,0.0,0.0,80,0.00,CLR,CLR,0.15,WeatherDisplay:10.37,2013-06-05 22:15:00,
2013-06-05 18:20:00,69.6,63.5,29.86,SE,135,0.0,0.0,81,0.00,CLR,CLR,0.15,WeatherDisplay:10.37,2013-06-05 22:20:00,
2013-06-05 18:26:00,69.6,63.5,29.86,SE,135,0.0,0.0,81,0.00,CLR,CLR,0.15,WeatherDisplay:10.37,2013-06-05 22:26:00,
2013-06-05 18:31:00,69.6,63.9,29.86,SE,135,0.0,0.0,82,0.00,CLR,CLR,0.15,WeatherDisplay:10.37,2013-06-05 22:31:00,
2013-06-05 18:36:00,69.4,63.7,29.86,SE,135,0.0,0.0,82,0.00,CLR,CLR,0.15,WeatherDisplay:10.37,2013-06-05 22:36:00,
2013-06-05 18:42:00,69.1,63.4,29.86,East,90,0.0,0.0,82,0.00,CLR,CLR,0.15,WeatherDisplay:10.37,2013-06-05 22:42:00,
2013-06-05 18:47:00,68.9,63.2,29.86,East,90,0.0,0.0,82,0.00,CLR,CLR,0.15,WeatherDisplay:10.37,2013-06-05 22:47:00,
2013-06-05 18:52:00,68.7,63.0,29.86,East,90,0.0,0.0,82,0.00,CLR,CLR,0.15,WeatherDisplay:10.37,2013-06-05 22:52:00,
2013-06-05 18:57:00,68.5,62.8,29.86,East,90,0.0,0.0,82,0.00,CLR,CLR,0.15,WeatherDisplay:10.37,2013-06-05 22:57:00,
2013-06-05 19:02:00,68.4,63.0,29.86,East,90,0.0,0.0,83,0.00,CLR,CLR,0.15,WeatherDisplay:10.37,2013-06-05 23:02:00,
2013-06-05 19:07:00,68.2,62.8,29.86,East,90,0.0,0.0,83,0.00,CLR,CLR,0.15,WeatherDisplay:10.37,2013-06-05 23:07:00,
2013-06-05 19:12:00,68.2,63.2,29.86,East,90,0.0,0.0,84,0.00,CLR,CLR,0.15,WeatherDisplay:10.37,2013-06-05 23:12:00,
2013-06-05 19:17:00,67.8,62.8,29.86,East,90,0.0,0.0,84,0.00,CLR,CLR,0.15,WeatherDisplay:10.37,2013-06-05 23:17:00,
2013-06-05 19:22:00,67.8,62.8,29.86,East,90,0.0,0.0,84,0.00,CLR,CLR,0.15,WeatherDisplay:10.37,2013-06-05 23:22:00,
2013-06-05 19:27:00,67.6,62.6,29.86,East,90,0.0,0.0,84,0.00,CLR,CLR,0.15,WeatherDisplay:10.37,2013-06-05 23:27:00,
2013-06-05 19:32:00,67.6,62.6,29.86,East,90,0.0,0.0,84,0.00,CLR,CLR,0.15,WeatherDisplay:10.37,2013-06-05 23:32:00,
2013-06-05 19:37:00,67.5,62.8,29.86,East,90,0.0,0.0,85,0.00,CLR,CLR,0.15,WeatherDisplay:10.37,2013-06-05 23:37:00,
2013-06-05 19:42:00,67.3,62.6,29.86,East,90,0.0,0.0,85,0.00,CLR,CLR,0.15,WeatherDisplay:10.37,2013-06-05 23:42:00,
2013-06-05 19:48:00,67.3,62.6,29.86,East,90,0.0,0.0,85,0.00,CLR,CLR,0.15,WeatherDisplay:10.37,2013-06-05 23:48:00,
2013-06-05 19:53:00,67.1,62.4,29.86,East,90,0.0,0.0,85,0.00,CLR,CLR,0.15,WeatherDisplay:10.37,2013-06-05 23:53:00,
2013-06-05 19:58:00,66.9,62.3,29.87,East,90,0.0,0.0,85,0.00,CLR,CLR,0.15,WeatherDisplay:10.37,2013-06-05 23:58:00,
2013-06-05 20:03:00,66.9,62.3,29.87,East,90,0.0,0.0,85,0.00,CLR,CLR,0.15,WeatherDisplay:10.37,2013-06-06 00:03:00,
2013-06-05 20:08:00,66.9,62.3,29.87,East,90,0.0,0.0,85,0.00,CLR,CLR,0.15,WeatherDisplay:10.37,2013-06-06 00:08:00,
2013-06-05 20:13:00,66.9,62.3,29.86,East,90,0.0,0.0,85,0.00,CLR,CLR,0.15,WeatherDisplay:10.37,2013-06-06 00:13:00,
2013-06-05 20:18:00,66.9,62.3,29.86,East,90,0.0,0.0,85,0.00,CLR,CLR,0.15,WeatherDisplay:10.37,2013-06-06 00:18:00,
2013-06-05 20:23:00,66.7,62.4,29.86,East,90,0.0,0.0,86,0.00,CLR,CLR,0.15,WeatherDisplay:10.37,2013-06-06 00:23:00,
2013-06-05 20:28:00,66.7,62.4,29.86,East,90,0.0,0.0,86,0.00,CLR,CLR,0.15,WeatherDisplay:10.37,2013-06-06 00:28:00,
2013-06-05 20:33:00,66.7,62.4,29.87,East,90,0.0,0.0,86,0.00,CLR,CLR,0.15,WeatherDisplay:10.37,2013-06-06 00:33:00,
2013-06-05 20:38:00,66.6,62.2,29.87,East,90,0.0,0.0,86,0.00,CLR,CLR,0.15,WeatherDisplay:10.37,2013-06-06 00:38:00,
2013-06-05 20:43:00,66.4,62.1,29.87,East,90,0.0,0.0,86,0.00,CLR,CLR,0.15,WeatherDisplay:10.37,2013-06-06 00:43:00,
2013-06-05 20:48:00,66.4,62.1,29.87,East,90,0.0,0.0,86,0.00,CLR,CLR,0.15,WeatherDisplay:10.37,2013-06-06 00:48:00,
2013-06-05 20:53:00,66.4,62.1,29.86,ENE,68,0.0,0.0,86,0.00,CLR,CLR,0.15,WeatherDisplay:10.37,2013-06-06 00:53:00,
2013-06-05 20:58:00,66.4,62.4,29.86,ENE,68,0.0,0.0,87,0.00,CLR,CLR,0.15,WeatherDisplay:10.37,2013-06-06 00:58:00,
2013-06-05 21:04:00,66.2,62.2,29.86,ENE,68,0.0,0.0,87,0.00,CLR,CLR,0.15,WeatherDisplay:10.37,2013-06-06 01:04:00,
2013-06-05 21:09:00,66.0,62.0,29.87,ENE,68,0.0,0.0,87,0.00,CLR,CLR,0.15,WeatherDisplay:10.37,2013-06-06 01:09:00,
2013-06-05 21:14:00,66.0,62.0,29.86,ENE,68,0.0,0.0,87,0.00,CLR,CLR,0.15,WeatherDisplay:10.37,2013-06-06 01:14:00,
2013-06-05 21:19:00,66.0,62.0,29.87,ENE,68,0.0,0.0,87,0.00,CLR,CLR,0.15,WeatherDisplay:10.37,2013-06-06 01:19:00,
2013-06-05 21:24:00,66.0,62.0,29.87,ENE,68,0.0,0.0,87,0.00,CLR,CLR,0.15,WeatherDisplay:10.37,2013-06-06 01:24:00,
2013-06-05 21:30:00,65.8,61.9,29.87,ENE,68,0.0,0.0,87,0.00,CLR,CLR,0.15,WeatherDisplay:10.37,2013-06-06 01:30:00,
2013-06-05 21:35:00,65.8,61.9,29.87,ENE,68,0.0,0.0,87,0.00,CLR,CLR,0.15,WeatherDisplay:10.37,2013-06-06 01:35:00,
2013-06-05 21:40:00,65.8,61.9,29.87,ENE,68,0.0,0.0,87,0.00,CLR,CLR,0.15,WeatherDisplay:10.37,2013-06-06 01:40:00,
2013-06-05 21:45:00,65.8,61.9,29.87,ENE,68,0.0,0.0,87,0.00,CLR,CLR,0.15,WeatherDisplay:10.37,2013-06-06 01:45:00,
2013-06-05 21:50:00,65.8,61.9,29.87,ENE,68,0.0,0.0,87,0.00,CLR,CLR,0.15,WeatherDisplay:10.37,2013-06-06 01:50:00,
2013-06-05 21:55:00,65.8,61.9,29.87,ENE,68,0.0,0.0,87,0.00,CLR,CLR,0.15,WeatherDisplay:10.37,2013-06-06 01:55:00,
2013-06-05 22:00:00,65.8,61.9,29.87,ENE,68,0.0,0.0,87,0.00,CLR,CLR,0.15,WeatherDisplay:10.37,2013-06-06 02:00:00,
2013-06-05 22:05:00,65.8,61.9,29.87,ENE,68,0.0,0.0,87,0.00,CLR,CLR,0.15,WeatherDisplay:10.37,2013-06-06 02:05:00,
2013-06-05 22:10:00,65.8,61.9,29.87,ENE,68,0.0,0.0,87,0.00,CLR,CLR,0.15,WeatherDisplay:10.37,2013-06-06 02:10:00,
2013-06-05 22:15:00,65.8,61.9,29.87,ENE,68,0.0,0.0,87,0.00,CLR,CLR,0.15,WeatherDisplay:10.37,2013-06-06 02:15:00,
2013-06-05 22:20:00,65.7,61.7,29.87,ENE,68,0.0,0.0,87,0.00,CLR,CLR,0.15,WeatherDisplay:10.37,2013-06-06 02:20:00,
2013-06-05 22:25:00,65.7,61.7,29.87,ENE,68,0.0,0.0,87,0.00,CLR,CLR,0.15,WeatherDisplay:10.37,2013-06-06 02:25:00,
2013-06-05 22:30:00,65.5,61.5,29.87,ENE,68,0.0,0.0,87,0.00,CLR,CLR,0.15,WeatherDisplay:10.37,2013-06-06 02:30:00,
2013-06-05 22:36:00,65.5,61.8,29.87,ENE,68,0.0,0.0,88,0.00,CLR,CLR,0.15,WeatherDisplay:10.37,2013-06-06 02:36:00,
2013-06-05 22:41:00,65.5,61.8,29.87,ENE,68,0.0,0.0,88,0.00,CLR,CLR,0.15,WeatherDisplay:10.37,2013-06-06 02:41:00,
2013-06-05 22:47:00,65.5,61.8,29.87,ENE,68,0.0,0.0,88,0.00,CLR,CLR,0.15,WeatherDisplay:10.37,2013-06-06 02:47:00,
2013-06-05 22:52:00,65.5,61.8,29.87,ENE,68,0.0,0.0,88,0.00,CLR,CLR,0.15,WeatherDisplay:10.37,2013-06-06 02:52:00,
2013-06-05 22:57:00,65.5,61.8,29.87,ENE,68,0.0,0.0,88,0.00,CLR,CLR,0.15,WeatherDisplay:10.37,2013-06-06 02:57:00,
2013-06-05 23:02:00,65.3,61.7,29.87,ENE,68,0.0,0.0,88,0.00,CLR,CLR,0.15,WeatherDisplay:10.37,2013-06-06 03:02:00,
2013-06-05 23:07:00,65.3,61.7,29.87,ENE,68,0.0,0.0,88,0.00,CLR,CLR,0.15,WeatherDisplay:10.37,2013-06-06 03:07:00,
2013-06-05 23:12:00,65.3,61.7,29.87,ENE,68,0.0,0.0,88,0.00,CLR,CLR,0.15,WeatherDisplay:10.37,2013-06-06 03:12:00,
2013-06-05 23:17:00,65.3,61.7,29.86,ENE,68,0.0,0.0,88,0.00,CLR,CLR,0.15,WeatherDisplay:10.37,2013-06-06 03:17:00,
2013-06-05 23:22:00,65.3,61.7,29.87,ENE,68,0.0,0.0,88,0.00,CLR,CLR,0.15,WeatherDisplay:10.37,2013-06-06 03:22:00,
2013-06-05 23:28:00,65.3,61.7,29.86,ENE,68,0.0,0.0,88,0.00,CLR,CLR,0.15,WeatherDisplay:10.37,2013-06-06 03:28:00,
2013-06-05 23:33:00,65.1,61.5,29.86,ENE,68,0.0,0.0,88,0.00,CLR,CLR,0.15,WeatherDisplay:10.37,2013-06-06 03:33:00,
2013-06-05 23:38:00,65.1,61.5,29.86,ENE,68,0.0,0.0,88,0.00,CLR,CLR,0.15,WeatherDisplay:10.37,2013-06-06 03:38:00,
2013-06-05 23:43:00,65.1,61.5,29.86,ENE,68,0.0,0.0,88,0.00,CLR,CLR,0.15,WeatherDisplay:10.37,2013-06-06 03:43:00,
2013-06-05 23:48:00,64.9,61.3,29.85,ENE,68,0.0,0.0,88,0.00,CLR,CLR,0.15,WeatherDisplay:10.37,2013-06-06 03:48:00,
2013-06-05 23:53:00,64.8,61.1,29.86,ENE,68,0.0,0.0,88,0.00,CLR,CLR,0.15,WeatherDisplay:10.37,2013-06-06 03:53:00,
2013-06-05 23:58:00,64.6,60.9,29.85,ENE,68,0.0,0.0,88,0.00,CLR,CLR,0.15,WeatherDisplay:10.37,2013-06-06 03:58:00,